Weather History for West Palm Beach, FL

Change the Weather History Date:

Friday, December 21, 2012

  Actual Average Record
Temperature  
Mean Temperature 61 °F 67 °F  
Max Temperature 72 °F 76 °F 87 °F (1948)
Min Temperature 49 °F 59 °F 35 °F (1935)
Degree Days  
Heating Degree Days 4 2  
Month to date heating degree days 4 32  
Since 1 July heating degree days 16 44  
Cooling Degree Days 0 5  
Month to date cooling degree days 194 114  
Year to date cooling degree days 4218 3980  
Growing Degree Days 8 (Base 50)    
Moisture  
Dew Point 49 °F    
Average Humidity 58    
Maximum Humidity 87    
Minimum Humidity 28    
Precipitation  
Precipitation T in 0.11 in 6.45 in (1994)
Month to date precipitation 1.12 2.26  
Year to date precipitation 78.72 61.21  
Snow  
Snow 0.00 in - - ()
Month to date snowfall 0.0  
Since 1 July snowfall 0.0  
Snow Depth 0.00 in    
Sea Level Pressure  
Sea Level Pressure 30.04 in    
Wind  
Wind Speed 15 mph (WNW)    
Max Wind Speed 26 mph    
Max Gust Speed 33 mph    
Visibility 10 miles    
Events Rain    
T = Trace of Precipitation, MM = Missing Value Source: NWS Daily Summary

Daily Weather History Graph

Daily Weather History Graph

Search for Another Location

Airport:

Trip Planner

Search our weather history database for the weather conditions in past years. The results will help you decide how hot, cold, wet, or windy it might be!

Date:

Astronomy

Dec. 21, 2012 Rise Set
Actual Time 7:04 AM EST 5:32 PM EST
Civil Twilight 6:39 AM EST 5:58 PM EST
Nautical Twilight 6:10 AM EST 6:27 PM EST
Astronomical Twilight 5:42 AM EST 6:55 PM EST
Moon 12:58 PM EST (12/21) 1:13 AM EST (12/21)
Length of Visible Light 11h 18m
Length of Day
10h 27m
Waxing Gibbous, 64% of the Moon is Illuminated
Dec 21
Waxing Gibbous
Dec 28
Full
Jan 4
Last Quarter
Jan 11
New
Jan 18
First Quarter

Hourly Weather History & Observations

Time (EST) Temp. Dew Point Humidity Pressure Visibility Wind Dir Wind Speed Gust Speed Precip Events Conditions
12:53 AM 71.1 °F 66.0 °F 84% 30.01 in 10.0 mi SW 8.1 mph - N/A   Mostly Cloudy
1:53 AM 70.0 °F 64.9 °F 84% 29.98 in 10.0 mi SSW 8.1 mph - N/A   Scattered Clouds
2:53 AM 71.1 °F 66.0 °F 84% 29.96 in 10.0 mi SSW 9.2 mph - N/A   Scattered Clouds
3:53 AM 71.1 °F 66.0 °F 84% 29.95 in 10.0 mi SW 9.2 mph - N/A   Scattered Clouds
4:53 AM 71.1 °F 66.9 °F 87% 29.94 in 10.0 mi SW 10.4 mph - N/A   Overcast
5:44 AM 71.6 °F 66.2 °F 83% 29.96 in 10.0 mi West 13.8 mph - 0.00 in Rain Light Rain
5:53 AM 72.0 °F 66.9 °F 84% 29.96 in 10.0 mi WSW 18.4 mph 21.9 mph 0.00 in Rain Light Rain
6:02 AM 71.6 °F 66.2 °F 83% 29.96 in 10.0 mi West 18.4 mph - 0.00 in Rain Light Rain
6:32 AM 66.2 °F 64.4 °F 94% 29.99 in 6.0 mi WNW 15.0 mph 21.9 mph 0.00 in Rain Light Rain
6:53 AM 66.0 °F 62.1 °F 87% 30.00 in 8.0 mi WNW 15.0 mph 24.2 mph 0.00 in Rain Light Rain
7:32 AM 64.4 °F 59.0 °F 83% 30.01 in 8.0 mi WNW 21.9 mph 27.6 mph 0.00 in   Overcast
7:47 AM 64.4 °F 55.4 °F 73% 30.03 in 8.0 mi NW 20.7 mph 28.8 mph 0.00 in   Overcast
7:53 AM 63.0 °F 54.0 °F 72% 30.03 in 8.0 mi NW 20.7 mph - 0.00 in   Mostly Cloudy
8:53 AM 63.0 °F 52.0 °F 67% 30.06 in 10.0 mi NW 15.0 mph - N/A   Mostly Cloudy
9:53 AM 63.0 °F 46.0 °F 54% 30.09 in 10.0 mi NW 18.4 mph 29.9 mph N/A   Mostly Cloudy
10:53 AM 63.0 °F 39.0 °F 41% 30.10 in 10.0 mi NNW 26.5 mph 33.4 mph N/A   Mostly Cloudy
11:53 AM 63.0 °F 36.0 °F 37% 30.09 in 10.0 mi NW 23.0 mph 28.8 mph N/A   Mostly Cloudy
12:53 PM 64.0 °F 35.1 °F 34% 30.06 in 10.0 mi NW 18.4 mph 25.3 mph N/A   Mostly Cloudy
1:53 PM 66.9 °F 34.0 °F 30% 30.04 in 10.0 mi NW 20.7 mph - N/A   Mostly Cloudy
2:53 PM 66.0 °F 32.0 °F 28% 30.04 in 10.0 mi WNW 20.7 mph 24.2 mph N/A   Scattered Clouds
3:53 PM 64.9 °F 30.9 °F 28% 30.05 in 10.0 mi NW 17.3 mph - N/A   Scattered Clouds
4:53 PM 64.0 °F 34.0 °F 33% 30.06 in 10.0 mi NW 13.8 mph 21.9 mph N/A   Scattered Clouds
5:53 PM 59.0 °F 35.1 °F 41% 30.08 in 10.0 mi WNW 6.9 mph - N/A   Partly Cloudy
6:53 PM 57.0 °F 37.0 °F 47% 30.09 in 10.0 mi WNW 8.1 mph - N/A   Partly Cloudy
7:53 PM 57.0 °F 37.0 °F 47% 30.11 in 10.0 mi NW 11.5 mph - N/A   Partly Cloudy
8:53 PM 55.9 °F 33.1 °F 42% 30.14 in 10.0 mi NW 12.7 mph - N/A   Clear
9:53 PM 53.1 °F 34.0 °F 48% 30.15 in 10.0 mi NW 13.8 mph 21.9 mph N/A   Clear
10:53 PM 51.1 °F 35.1 °F 54% 30.16 in 10.0 mi NW 12.7 mph 20.7 mph N/A   Clear
11:53 PM 48.9 °F 35.1 °F 59% 30.17 in 10.0 mi NW 15.0 mph - N/A   Clear